Weather History for Salinas, CA

Change the Weather History Date:

Thursday, July 25, 2013

  Actual Average Record
Temperature  
Mean Temperature 62 °F 63 °F  
Max Temperature 69 °F 71 °F 87 °F (1973)
Min Temperature 54 °F 56 °F 42 °F (1936)
Degree Days  
Heating Degree Days 3 2  
Month to date heating degree days 58 70  
Since 1 June heating degree days 156 183  
Since 1 July heating degree days 58 70  
Cooling Degree Days 0 1  
Month to date cooling degree days 13 25  
Year to date cooling degree days 47 53  
Since 1 June cooling degree days 37 37  
Growing Degree Days 12 (Base 50)    
Moisture  
Dew Point 54 °F    
Average Humidity 78    
Maximum Humidity 93    
Minimum Humidity 63    
Precipitation  
Precipitation 0.00 in 0.00 in 0.00 in (2014)
Month to date precipitation T 0.00  
Year to date precipitation 2.33 8.72  
Since 1 July precipitation T 0.00  
Sea Level Pressure  
Sea Level Pressure 30.02 in    
Wind  
Wind Speed 8 mph (WNW)    
Max Wind Speed 17 mph    
Max Gust Speed 23 mph    
Visibility 8 miles    
Events      
T = Trace of Precipitation, MM = Missing Value Source: NWS Daily Summary

Daily Weather History Graph

Daily Weather History Graph

Search for Another Location

Airport:

Trip Planner

Search our weather history database for the weather conditions in past years. The results will help you decide how hot, cold, wet, or windy it might be!

Date:

Astronomy

Jul. 25, 2013 Rise Set
Actual Time 6:07 AM PDT 8:18 PM PDT
Civil Twilight 5:38 AM PDT 8:47 PM PDT
Nautical Twilight 5:02 AM PDT 9:22 PM PDT
Astronomical Twilight 4:23 AM PDT 10:01 PM PDT
Moon 10:10 PM PDT (7/25) 9:35 AM PDT (7/25)
Length of Visible Light 15h 09m
Length of Day
14h 11m
Waning Gibbous, 87% of the Moon is Illuminated
Jul 25
Waning Gibbous
Jul 29
Last Quarter
Aug 6
New
Aug 14
First Quarter
Aug 20
Full

Hourly Weather History & Observations

Time (PDT) Temp. Dew Point Humidity Pressure Visibility Wind Dir Wind Speed Gust Speed Precip Events Conditions
12:53 AM 55.9 °F 54.0 °F 93% 29.99 in 10.0 mi West 6.9 mph - N/A   Overcast
1:53 AM 55.9 °F 54.0 °F 93% 30.00 in 9.0 mi Calm Calm - N/A   Overcast
2:53 AM 57.0 °F 54.0 °F 89% 30.00 in 8.0 mi Calm Calm - N/A   Overcast
3:53 AM 55.9 °F 54.0 °F 93% 29.99 in 4.0 mi Calm Calm - N/A   Overcast
4:20 AM 55.4 °F 53.6 °F 94% 29.97 in 2.5 mi West 5.8 mph - N/A   Overcast
4:39 AM 55.4 °F 53.6 °F 94% 29.97 in 4.0 mi WNW 5.8 mph - N/A   Overcast
4:53 AM 55.0 °F 53.1 °F 93% 30.00 in 2.5 mi WNW 5.8 mph - N/A   Overcast
5:13 AM 55.4 °F 53.6 °F 94% 29.98 in 4.0 mi WNW 3.5 mph - N/A   Overcast
5:20 AM 55.4 °F 53.6 °F 94% 29.98 in 1.8 mi West 3.5 mph - N/A   Overcast
5:28 AM 55.4 °F 53.6 °F 94% 29.98 in 3.0 mi West 5.8 mph - N/A   Overcast
5:53 AM 55.0 °F 53.1 °F 93% 30.01 in 8.0 mi Variable 4.6 mph - N/A   Overcast
6:53 AM 55.0 °F 53.1 °F 93% 30.02 in 7.0 mi WNW 3.5 mph - N/A   Overcast
7:51 AM 55.4 °F 53.6 °F 94% 30.00 in 9.0 mi Calm Calm - N/A   Overcast
7:53 AM 55.9 °F 53.1 °F 90% 30.03 in 9.0 mi Calm Calm - N/A   Overcast
8:53 AM 57.0 °F 53.1 °F 87% 30.04 in 10.0 mi Calm Calm - N/A   Overcast
9:53 AM 61.0 °F 53.1 °F 75% 30.04 in 10.0 mi Calm Calm - N/A   Mostly Cloudy
10:03 AM 62.6 °F 53.6 °F 72% 30.02 in 10.0 mi WNW 5.8 mph - N/A   Scattered Clouds
10:53 AM 64.0 °F 54.0 °F 70% 30.05 in 10.0 mi WNW 8.1 mph - N/A   Clear
11:53 AM 64.0 °F 54.0 °F 70% 30.05 in 10.0 mi West 10.4 mph - N/A   Clear
12:53 PM 66.9 °F 55.0 °F 66% 30.04 in 10.0 mi West 13.8 mph - N/A   Clear
1:53 PM 68.0 °F 55.0 °F 63% 30.04 in 10.0 mi WNW 15.0 mph - N/A   Clear
2:53 PM 68.0 °F 55.0 °F 63% 30.04 in 10.0 mi West 16.1 mph - N/A   Clear
3:53 PM 66.9 °F 54.0 °F 63% 30.03 in 10.0 mi WNW 13.8 mph - N/A   Clear
4:53 PM 66.0 °F 54.0 °F 65% 30.03 in 10.0 mi WNW 18.4 mph - N/A   Clear
5:53 PM 64.0 °F 54.0 °F 70% 30.04 in 10.0 mi NW 15.0 mph - N/A   Clear
6:53 PM 62.1 °F 53.1 °F 72% 30.04 in 10.0 mi WNW 13.8 mph - N/A   Partly Cloudy
7:21 PM 60.8 °F 53.6 °F 77% 30.02 in 10.0 mi WNW 11.5 mph - N/A   Mostly Cloudy
7:53 PM 59.0 °F 53.1 °F 81% 30.05 in 10.0 mi WNW 13.8 mph - N/A   Mostly Cloudy
8:53 PM 59.0 °F 53.1 °F 81% 30.06 in 8.0 mi NW 10.4 mph - N/A   Overcast
9:53 PM 59.0 °F 54.0 °F 83% 30.08 in 8.0 mi WNW 10.4 mph - N/A   Overcast
10:53 PM 57.9 °F 53.1 °F 84% 30.08 in 8.0 mi WNW 9.2 mph - N/A   Overcast
11:53 PM 57.0 °F 54.0 °F 89% 30.09 in 8.0 mi WNW 6.9 mph - N/A   Overcast